sat.trackr.live / text

‹ back to catalog

STARLINK-3861

NORAD 52503 · 2022-049BE

PAYLOAD ACTIVE UNKNOWN

§ Identity

Operator
Country
US
Launch date
2022-05-06
Launch site
AFETR
Launch vehicle
Mass (kg)
RCS (m²)

Purposes: comms

External: N2YO · Heavens-Above · Gunter

§ Orbital elements

Epoch: 2026-05-25T00:22:51.358080Z

Period
95.44 min
Inclination
53.2139°
Eccentricity
0.0001847
Mean motion
15.08844489 rev/d
Perigee alt
538.5 km
Apogee alt
541.0 km
Semi-major
6,917.9 km
B*
-1.2684e-5
RAAN
56.3620°
Arg perigee
84.9388°
Mean anomaly
275.1815°
Rev number
22,405

§ Raw data

STARLINK-38611 52503U 22049BE  26145.01587220 -.00000490  00000+0 -12684-4 0  99942 52503  53.2139  56.3620 0001847  84.9388 275.1815 15.08844489224055

JSON: /api/v1/satellites/52503 · /tle

For live sub-satellite position, see the globe view (requires WebGL).

§ Visibility from observer

Set your observer location to see the next 7 days of passes ≥ 10°. The values pass through the URL so the page stays shareable.

No JS? Fill the form by hand. The geolocation button needs JavaScript.